星链-3659 (STARLINK-3659 )

导读

STARLINK-3659是美国SpaceX星链互联网星座中的一颗卫星,于2022年3月9日发射升空。它属于Star-blockGroup,加入低轨道卫星组网,旨在为全球提供高速低延迟的宽带互联网服务,依托星座规模化部署,补充覆盖全球偏远、网络基础设施薄弱区域,推进星链星座全球通信网络的建设。

Basic Information
目录编号:
52001
目录名称:
STARLINK-3659
国际标识:
2022-025AX
轨道中心:
EARTH
卫星名称:
星链-3659
卫星全名:
星链-3659 (STARLINK-3659 )
卫星状态:
在轨 (已飞行1561 天)
发射日期:
2022-03-09 UTC
国别 :
美国 (US)
星等 :
--
Orbit Information
数据来源 国际轨道数据 AOE轨道数据
星历时间 2026-06-17T20:27:38+0800
6小时前
查看轨道信息
2026-06-13T16:00:00+0800
4天前
查看轨道信息
半长轴 6917.896km 6917.907km
偏心率 0.0001047 0.0000913
轨道倾角 53.159° 53.159°
近地点辐角 82.936° 69.776°
升交点赤经 290.877° 309.697°
平近点角 277.176° 221.131°
近地点 539.034km 539.138km
远地点 540.484km 540.402km
周期 95.438分钟 95.438分钟
每日圈数 15.088352 15.088313
Detailed Information
固有亮度:
5
最大亮度:
2.5
卫星平台:
Starlink v1.5
覆盖范围:
全球
运营商:
太空探索技术公司
运营商所在国:
美国
制造商(研发单位):
太空探索技术公司
制造商所在国:
美国
使用方式:
暂无
Satellite Introduction
星链(Starlink)计划是由太空探索技术公司(SpaceX)提出的一个巨型低轨卫星互联网星座项目,计划在2019年至2024年间在太空搭建由约1.2万颗卫星组成的“星链”网络,其中1584颗将部署在地球上空550千米处的近地轨道,并从2020年开始工作。该卫星仍在工作。
2D Orbit Map
3D Orbit Map
Orbit Altitude Analysis Chart
Orbit Inclination Analysis Chart
Orbit Comprehensive Analysis Chart
View Comprehensive Chart